Wind_Speed
20 19 18 17 16 17 16 16 16 16 15 15 15 12 11 10 14 17 18 20 17 16 18 19 19 19 20 21 22 22 23 24 23 24 22 21 18 16 13 12 13 9 6
20 19 18 19 19 19 18 17 17 18 18 18 18 14 13 13 13 15 18 19 17 16 17 19 20 20 20 22 21 22 23 25 25 24 22 22 18 14 10 9 13 8 8
17 20 20 21 21 20 19 20 20 20 20 20 19 18 13 15 15 15 18 17 17 16 16 18 20 19 20 21 21 23 24 26 28 27 25 21 16 13 7 8 9 8 7
17 15 14 17 19 21 22 22 22 22 21 20 22 19 15 14 16 16 18 18 20 18 17 17 18 19 20 21 21 23 25 28 31 29 25 19 14 11 8 4 6 1 4
22 22 18 15 16 19 25 25 24 24 22 21 22 22 18 15 17 17 17 17 18 18 16 17 18 19 20 21 21 23 26 29 31 29 23 19 15 12 11 8 7 4 3
30 28 28 23 21 19 20 28 28 26 24 22 22 23 20 17 17 18 18 17 16 18 17 16 17 18 19 20 21 23 26 28 31 28 22 19 16 15 10 8 7 5 4
29 26 28 29 28 23 22 25 31 28 26 23 22 24 22 20 18 19 17 17 15 17 17 16 17 17 19 20 21 23 26 29 31 29 22 22 17 16 12 9 5 8 3
29 26 24 25 24 24 25 26 31 31 28 24 22 24 23 23 18 21 17 17 15 15 16 15 16 17 18 19 20 22 25 28 31 28 26 25 23 18 14 10 7 7 8
25 22 19 20 22 25 25 27 28 31 30 25 25 25 25 24 21 22 19 16 14 14 15 16 16 15 17 18 19 20 23 27 30 26 27 29 29 23 15 11 10 7 7
28 29 25 22 20 23 23 21 26 30 30 28 28 29 27 26 23 23 21 17 14 13 14 16 16 15 15 17 18 18 21 25 28 26 28 29 27 25 23 18 13 12 13
26 32 32 26 19 16 16 16 18 24 28 28 30 31 30 27 25 25 23 17 15 15 13 17 18 14 14 15 16 16 18 22 25 24 26 26 26 28 28 21 12 12 14
33 32 38 30 22 21 17 17 17 20 23 24 28 31 29 28 26 26 23 20 16 16 14 14 17 15 12 13 14 14 15 19 23 23 23 23 25 28 33 26 20 17 15
28 32 40 37 32 26 22 23 22 21 19 17 20 27 25 27 27 27 25 22 18 17 13 13 16 16 12 10 11 12 12 16 20 21 19 20 22 26 33 28 24 21 22
22 31 39 43 41 34 32 30 30 29 27 24 24 22 18 23 28 27 25 23 21 17 15 14 14 13 14 9 8 9 9 12 16 18 16 17 19 23 28 27 29 26 22
24 21 28 37 38 31 30 34 37 34 35 30 26 30 24 21 20 22 21 20 23 20 18 16 16 13 11 11 6 6 6 7 12 14 14 15 17 19 22 28 26 27 21
7 19 25 21 32 45 44 45 45 44 40 38 29 28 27 30 28 24 23 24 25 20 19 18 16 15 10 10 6 5 3 3 8 11 12 12 14 16 17 22 24 31 28
3 5 12 15 20 30 34 46 57 54 38 38 36 35 29 28 29 28 28 26 24 21 19 18 17 14 12 8 8 4 4 1 4 7 9 9 12 13 15 16 20 22 26
7 11 10 13 14 17 18 29 43 43 43 36 34 31 28 24 26 28 27 27 22 24 21 19 18 16 12 10 8 8 6 5 3 5 6 7 10 12 12 13 15 18 19
12 12 13 16 15 12 17 8 16 28 38 41 21 25 25 23 26 16 21 33 27 36 42 19 19 17 15 12 11 11 9 9 7 5 5 6 6 12 11 11 12 14 16
18 15 15 13 14 9 6 2 14 12 6 11 19 23 25 22 20 22 21 20 32 20 33 30 22 20 18 15 14 14 12 13 10 8 6 5 6 9 12 11 11 12 14
22 18 16 15 15 15 14 11 10 13 15 17 21 22 18 17 17 18 18 23 26 25 26 35 31 27 22 19 19 17 15 16 14 11 10 8 6 9 11 12 12 11 10
15 21 20 15 18 17 17 17 18 17 18 16 17 16 16 18 15 13 14 22 18 20 23 34 33 34 32 25 23 18 14 15 16 14 13 12 9 8 10 13 12 12 12
11 16 23 20 20 21 20 17 16 19 17 16 16 17 18 18 17 16 15 14 15 22 25 32 35 31 36 29 26 17 11 10 16 16 15 14 13 12 10 12 14 14 12
9 11 15 17 16 19 19 17 16 17 17 18 19 18 17 17 19 19 17 16 15 15 22 25 37 32 32 31 25 20 16 11 10 14 16 15 14 14 13 13 12 14 14
9 10 10 9 11 12 16 18 17 16 16 16 15 13 15 13 11 9 7 7 7 9 15 26 36 30 26 33 21 13 15 16 14 8 11 14 14 14 15 15 15 14 14
9 8 11 11 6 8 9 12 14 14 11 6 3 1 2 5 4 4 4 1 3 7 6 9 20 21 31 28 18 12 14 15 18 13 12 8 13 14 14 15 15 17 17
Wind_Direction
215 216 219 223 227 232 235 236 235 234 243 257 276 296 318 334 331 345 356 359 0 0 360 0 6 0 6 1 8 7 2 358 356 347 342 338 333 330 326 318 323 325 291
225 221 222 224 229 234 236 238 239 239 239 252 266 282 307 322 333 331 349 358 357 354 357 360 3 2 2 1 5 8 5 360 357 355 349 342 338 335 331 310 313 313 300
232 236 234 233 231 232 235 238 239 241 240 244 259 272 291 309 326 322 339 353 348 346 353 358 1 1 2 359 3 8 5 2 0 360 354 353 348 343 343 314 309 292 272
227 231 239 246 243 236 233 236 240 240 242 243 251 264 277 295 309 317 331 342 345 343 345 352 356 0 360 358 2 9 6 4 3 4 1 4 4 4 1 329 339 276 283
227 232 239 240 243 242 236 235 238 240 241 243 246 257 267 282 296 309 324 333 341 339 334 345 350 356 360 359 1 10 8 6 6 5 11 15 15 17 20 19 5 11 301
228 232 239 243 239 246 252 239 236 239 240 242 246 255 261 272 286 300 314 325 337 333 328 337 344 351 360 360 1 9 10 7 9 11 20 16 17 14 7 12 17 16 67
231 238 242 242 240 246 255 251 237 236 240 240 245 251 257 262 275 289 302 316 329 327 330 329 337 347 358 360 1 9 11 9 12 17 23 19 16 16 20 4 17 14 89
228 234 236 242 247 251 252 259 238 232 236 239 244 249 253 257 264 278 291 305 319 324 325 326 330 344 355 358 2 9 12 10 14 21 27 20 15 12 16 22 27 48 50
216 231 230 240 252 243 251 257 238 231 234 237 243 248 251 253 256 267 280 293 309 315 313 323 325 341 350 358 2 9 15 13 15 28 31 23 23 34 42 57 50 43 22
222 225 227 228 237 244 243 245 232 232 235 237 241 247 250 252 251 260 272 283 296 303 302 312 320 335 346 357 3 10 16 15 18 33 38 34 39 50 51 53 54 43 72
225 232 229 222 214 211 219 225 230 233 237 238 242 245 247 249 248 254 265 276 286 292 301 305 314 327 341 354 1 11 19 18 21 37 45 41 39 44 45 44 62 75 72
240 234 219 216 211 200 211 220 220 226 235 239 242 245 245 246 245 251 259 268 271 280 290 302 307 317 335 350 359 8 18 22 23 40 53 47 40 40 39 54 87 84 85
234 226 218 221 221 219 216 229 230 228 230 239 250 252 248 244 243 248 253 260 263 269 280 290 300 310 319 342 359 6 12 30 27 38 56 55 48 44 49 71 75 76 90
240 232 225 221 222 222 229 235 234 236 231 239 251 256 257 248 245 246 251 257 263 266 268 273 288 303 310 325 355 2 8 33 34 38 56 64 59 52 58 68 70 86 88
249 252 247 235 225 225 244 246 244 241 246 239 229 255 253 252 256 248 249 248 254 255 261 262 273 282 299 308 343 350 8 29 43 38 58 73 70 63 65 69 82 85 84
280 251 257 239 243 246 250 251 246 251 240 249 242 238 250 251 250 248 239 238 248 260 257 258 264 280 285 295 313 331 337 24 57 46 49 82 82 78 71 81 81 89 90
258 224 223 225 251 255 252 248 244 239 234 235 240 240 240 251 251 247 242 239 245 254 259 258 253 260 274 272 287 286 265 229 82 62 59 81 99 89 88 86 92 88 95
266 260 257 259 275 303 312 260 229 229 234 241 240 245 247 246 250 240 240 242 245 256 260 255 255 256 264 259 260 264 244 221 164 110 81 83 115 112 101 98 99 99 95
331 280 256 250 259 283 342 282 289 239 239 244 258 240 249 267 264 280 210 240 238 266 239 239 237 253 274 272 255 255 234 227 198 167 127 111 129 131 125 114 110 108 108
286 302 282 267 265 261 259 356 148 137 192 217 247 251 251 256 258 270 255 234 245 275 230 229 230 248 255 258 268 253 237 228 206 190 171 144 146 157 144 141 129 123 120
260 268 271 263 260 264 259 245 266 246 236 236 240 243 247 262 271 271 252 235 252 247 239 230 230 234 239 253 257 244 236 226 214 200 189 180 169 177 168 161 158 148 138
243 252 253 247 247 244 246 245 244 248 242 241 247 254 265 271 276 276 260 239 228 239 235 231 232 233 225 239 240 229 230 229 216 205 202 198 191 196 186 182 178 176 165
246 239 239 242 232 236 238 240 241 245 239 243 252 263 269 274 276 281 283 253 235 238 233 232 233 239 206 213 217 208 202 227 225 211 209 208 205 205 210 194 196 196 196
267 257 243 246 253 240 237 237 233 242 253 265 277 279 277 276 278 278 271 270 264 246 235 238 225 243 203 205 203 198 196 217 219 211 218 214 218 219 220 223 209 205 209
276 267 245 253 256 256 253 250 260 262 263 267 275 281 285 281 271 273 265 255 244 229 233 218 223 243 215 202 201 197 208 217 210 182 209 217 216 226 230 232 234 230 224
267 273 241 234 233 246 263 256 249 249 241 224 199 221 108 78 120 144 163 88 256 211 204 232 235 228 217 207 204 219 223 249 221 211 223 205 208 217 232 235 239 242 243
Height
3198 3201 3202 3204 3206 3207 3209 3210 3212 3212 3214 3214 3212 3213 3212 3210 3208 3206 3202 3199 3195 3191 3187 3183 3178 3173 3169 3164 3160 3155 3149 3143 3137 3130 3124 3117 3112 3109 3107 3104 3101 3098 3097
3196 3197 3199 3200 3202 3204 3206 3208 3208 3209 3211 3211 3211 3211 3211 3209 3206 3204 3202 3199 3195 3191 3187 3183 3178 3173 3169 3164 3159 3153 3148 3142 3135 3129 3122 3114 3110 3107 3105 3103 3100 3098 3095
3192 3194 3195 3196 3198 3200 3202 3204 3205 3206 3207 3208 3209 3209 3209 3207 3205 3204 3201 3199 3195 3191 3187 3183 3178 3173 3169 3163 3158 3154 3148 3141 3134 3127 3119 3112 3108 3104 3103 3101 3099 3096 3095
3188 3190 3191 3193 3195 3196 3198 3199 3201 3202 3203 3204 3206 3207 3207 3206 3204 3202 3201 3197 3194 3191 3187 3183 3178 3173 3168 3163 3158 3154 3148 3141 3134 3126 3118 3112 3108 3104 3101 3100 3098 3095 3094
3183 3185 3188 3189 3191 3192 3193 3195 3196 3197 3199 3200 3202 3203 3203 3203 3202 3201 3200 3196 3194 3190 3187 3182 3178 3174 3169 3164 3159 3154 3148 3140 3134 3126 3118 3112 3108 3105 3102 3100 3098 3096 3095
3178 3180 3182 3184 3185 3187 3189 3190 3191 3193 3195 3196 3198 3200 3200 3200 3200 3200 3198 3195 3194 3189 3186 3182 3178 3174 3169 3165 3159 3154 3148 3141 3134 3127 3119 3114 3110 3106 3102 3101 3099 3096 3095
3174 3176 3177 3178 3180 3182 3183 3184 3186 3189 3191 3193 3194 3196 3197 3197 3198 3197 3196 3193 3192 3189 3186 3182 3178 3174 3170 3166 3160 3155 3150 3142 3135 3128 3120 3116 3112 3107 3103 3101 3099 3097 3095
3169 3171 3173 3176 3176 3177 3177 3179 3181 3183 3186 3189 3191 3192 3193 3193 3194 3193 3193 3192 3191 3188 3185 3181 3177 3174 3170 3166 3161 3156 3151 3144 3136 3129 3123 3118 3113 3107 3104 3101 3099 3098 3096
3164 3166 3166 3169 3171 3171 3172 3174 3176 3179 3181 3185 3186 3187 3188 3189 3191 3190 3190 3190 3189 3187 3183 3180 3177 3174 3170 3166 3162 3158 3152 3147 3139 3132 3126 3121 3115 3108 3104 3102 3101 3099 3096
3159 3161 3162 3163 3164 3167 3168 3170 3172 3174 3177 3180 3181 3182 3183 3185 3187 3187 3187 3187 3187 3185 3183 3179 3177 3174 3171 3167 3163 3159 3154 3148 3141 3134 3128 3124 3118 3113 3108 3105 3103 3100 3098
3154 3156 3158 3158 3159 3162 3165 3167 3169 3170 3172 3174 3176 3177 3178 3181 3183 3183 3183 3184 3185 3183 3182 3180 3177 3174 3171 3168 3165 3161 3156 3150 3145 3138 3132 3129 3124 3118 3113 3106 3104 3103 3102
3148 3149 3152 3155 3155 3157 3161 3163 3164 3165 3167 3169 3170 3171 3174 3176 3178 3178 3180 3180 3180 3179 3178 3178 3174 3173 3170 3168 3165 3162 3158 3153 3147 3141 3137 3134 3131 3125 3116 3109 3107 3107 3106
3140 3141 3145 3149 3152 3153 3156 3160 3162 3161 3162 3164 3166 3166 3170 3170 3172 3173 3175 3175 3175 3175 3175 3174 3173 3171 3169 3167 3165 3163 3160 3155 3150 3145 3141 3139 3136 3132 3123 3118 3114 3113 3111
3136 3137 3140 3142 3147 3150 3152 3154 3157 3159 3158 3160 3161 3164 3165 3165 3166 3168 3169 3170 3171 3172 3172 3170 3169 3168 3168 3166 3164 3162 3161 3157 3153 3149 3145 3142 3140 3138 3131 3126 3121 3119 3119
3131 3133 3135 3139 3144 3144 3149 3152 3153 3153 3155 3153 3153 3159 3161 3162 3162 3163 3164 3165 3165 3167 3167 3167 3167 3166 3165 3165 3163 3162 3160 3159 3156 3152 3149 3146 3144 3143 3140 3134 3129 3126 3127
3125 3127 3130 3133 3138 3139 3140 3140 3145 3147 3148 3150 3151 3152 3154 3157 3156 3158 3158 3158 3159 3162 3163 3163 3163 3165 3162 3163 3162 3161 3160 3159 3157 3154 3152 3149 3148 3147 3147 3142 3138 3134 3133
3126 3127 3128 3129 3131 3130 3128 3128 3129 3138 3139 3143 3143 3147 3146 3151 3150 3152 3152 3153 3154 3156 3158 3158 3159 3159 3160 3160 3161 3159 3159 3158 3158 3156 3153 3152 3151 3150 3149 3149 3144 3143 3140
3123 3124 3125 3125 3125 3123 3116 3110 3112 3121 3126 3129 3137 3138 3136 3140 3141 3140 3144 3148 3148 3150 3152 3153 3155 3155 3156 3157 3158 3158 3158 3158 3157 3157 3155 3154 3153 3152 3152 3151 3150 3148 3147
3121 3122 3123 3122 3121 3119 3116 3111 3114 3116 3121 3122 3128 3129 3129 3135 3132 3131 3121 3141 3143 3141 3144 3151 3151 3153 3153 3154 3155 3156 3157 3156 3156 3157 3156 3154 3154 3153 3154 3154 3153 3152 3152
3118 3117 3117 3117 3115 3115 3117 3117 3115 3115 3117 3120 3124 3126 3131 3129 3127 3126 3126 3131 3135 3135 3139 3144 3146 3149 3151 3151 3153 3153 3155 3155 3153 3155 3156 3156 3155 3154 3153 3156 3156 3155 3155
3111 3112 3112 3112 3111 3112 3113 3113 3113 3113 3114 3119 3123 3125 3124 3123 3122 3122 3124 3127 3129 3130 3131 3136 3140 3141 3146 3148 3149 3149 3150 3152 3152 3152 3154 3155 3155 3155 3154 3155 3156 3156 3157
3106 3107 3108 3108 3109 3110 3110 3110 3111 3112 3112 3113 3116 3118 3117 3119 3118 3119 3119 3121 3121 3123 3125 3129 3131 3133 3137 3145 3144 3144 3146 3149 3151 3150 3152 3153 3154 3156 3155 3155 3156 3157 3157
3103 3102 3103 3104 3104 3105 3106 3107 3107 3108 3109 3110 3112 3112 3114 3115 3115 3114 3114 3115 3115 3117 3120 3123 3124 3119 3123 3134 3138 3139 3141 3145 3148 3148 3149 3151 3152 3153 3155 3155 3155 3156 3157
3098 3098 3098 3099 3100 3101 3103 3104 3105 3106 3106 3106 3107 3109 3108 3108 3107 3106 3106 3108 3109 3111 3114 3114 3118 3121 3116 3126 3130 3133 3137 3142 3144 3144 3146 3147 3149 3151 3153 3154 3154 3155 3156
3095 3095 3096 3096 3097 3099 3100 3101 3103 3104 3106 3105 3105 3104 3103 3102 3101 3101 3102 3103 3105 3107 3108 3110 3112 3114 3119 3125 3127 3130 3133 3136 3140 3141 3142 3144 3145 3148 3150 3152 3153 3154 3154
3093 3093 3094 3094 3095 3097 3098 3098 3099 3101 3102 3103 3104 3103 3101 3099 3099 3100 3101 3102 3105 3105 3107 3107 3106 3110 3116 3120 3124 3127 3129 3131 3135 3137 3139 3140 3141 3143 3146 3147 3149 3150 3152